(8) Flora
ephemeris date magn radius delta ra dec elong phase
Today16 Sep 202512.02.545 AU3.353 AU13h34m-05°14'31.1°11.8°
Opposition9 Jul 20268.92.263 AU1.246 AU19h15m-21°37'179.2°0.4°
(8) Flora - 2025-09-16
astro.vanbuitenen.nl


 
-1 year
-1 month
-1 day
Now
+1 day
+1 month
+1 year

The interactive orbit chart above shows the body's path through the solar system and its position at the given date. Green and blue lines are shown perpendicular to the ecliptic plane: Green if the path is above the ecliptic plane, blue if it is below. (Left-click and drag to rotate the view; Right-click and drag to move the view; Use scroll wheel to zoom in our out.)

The orbital elements of Flora are:

            e (Eccentricity)                : 0.1564763
            a (Semimajor axis)              : 2.2010413
            i (Inclination)                 : 5.89029
            Ω (Longitude of ascending node) : 110.84542
            ω (Argument of perihelion)      : 285.42157
            M (Mean anomaly)                : 138.54190
            Epoch                           : 2025 May 05

            L (Longitude of perihelion)     : 36.34492
            B (Latitude of perihelion)      : -5.67750
            P (Orbital period in years)     : 3.27            
        

The light curve chart below shows the estimated development of the minor planet's magnitude.


The all-sky chart below shows the path of the minor planet over the same period as the light curve. The current position is marked yellow.





The following chart shows the path of the minor planet in the next few days. The field of view is optimized for (~10x50) binoculars and finderscopes. A more printer-friendly version of the same chart can be found below.




Ephemerides:
Date       Time       RA (2000)    DEC (2000)    delta   radius  elong  phase   PA    magn
2025-09-16 00:00 UT   13 34 43.6   -05 14 11     3.353    2.545   31.1   11.8   104   12.0 
2025-09-16 22:32 UT   13 36 10.9   -05 23 28     3.359    2.545   30.6   11.6   104   12.0 
2025-09-17 00:00 UT   13 36 16.6   -05 24 04     3.359    2.545   30.5   11.6   104   12.0 
2025-09-18 00:00 UT   13 37 49.9   -05 33 57     3.366    2.545   30.0   11.4   104   12.0 
2025-09-19 00:00 UT   13 39 23.5   -05 43 48     3.372    2.545   29.4   11.2   104   12.0 
2025-09-20 00:00 UT   13 40 57.3   -05 53 39     3.378    2.545   28.9   11.0   103   12.0 
2025-09-21 00:00 UT   13 42 31.3   -06 03 28     3.384    2.545   28.3   10.8   103   12.0 
2025-09-22 00:00 UT   13 44 05.6   -06 13 16     3.390    2.545   27.8   10.6   103   12.0 
2025-09-23 00:00 UT   13 45 40.2   -06 23 03     3.396    2.545   27.2   10.4   103   12.0 
2025-09-24 00:00 UT   13 47 15.0   -06 32 48     3.401    2.545   26.7   10.2   102   12.0 
2025-09-25 00:00 UT   13 48 50.1   -06 42 32     3.407    2.545   26.2   10.0   102   11.9 
2025-09-26 00:00 UT   13 50 25.4   -06 52 14     3.412    2.545   25.6    9.8   102   11.9 
2025-09-27 00:00 UT   13 52 00.9   -07 01 55     3.418    2.545   25.1    9.6   102   11.9 
2025-09-28 00:00 UT   13 53 36.6   -07 11 34     3.423    2.545   24.5    9.4   101   11.9 
2025-09-29 00:00 UT   13 55 12.7   -07 21 12     3.428    2.545   24.0    9.2   101   11.9 
2025-09-30 00:00 UT   13 56 48.9   -07 30 48     3.433    2.545   23.4    9.0   101   11.9 
2025-10-01 00:00 UT   13 58 25.3   -07 40 22     3.438    2.545   22.9    8.8   100   11.9 
2025-10-02 00:00 UT   14 00 02.0   -07 49 54     3.442    2.545   22.3    8.6   100   11.9 
2025-10-03 00:00 UT   14 01 39.0   -07 59 25     3.447    2.545   21.8    8.4   100   11.9 
2025-10-04 00:00 UT   14 03 16.1   -08 08 53     3.451    2.545   21.2    8.2    99   11.9 
2025-10-05 00:00 UT   14 04 53.5   -08 18 20     3.455    2.545   20.7    8.0    99   11.9 


    Terminology:
            
    delta:  distance between minor planet and earth in AU
    radius: distance between minor planet and sun in AU
    magn:   magnitude (brightness) estimate    
    ra:     right ascension in hours (24h = 360deg)
    dec:    declination in degrees
    elong:  elongation in degrees (angle sun-earth-minor planet)    
    phase:  phase angle in degrees (angle sun-minor planet-earth)        
    AU:     Astronomical Unit (mean distance between earth and sun: 149597870.7 km
    

Orbital elements provided by the MPC (Minor Planet Center).
Calculations by a modified version of AAPlus, a C# implementation of the AA+ project by PJ Naughter from the algorithms presented in the book "Astronomical Algorithms" by Jean Meeus.
NGC2000 dso catalog and star labels from VizieR as provided by the Strasbourg astronomical Data Center.
Tycho2 catalog from the ESO archive.